Location: Haliburton Scout Reserve
(45.0900°N, 78.3200°W)
Time: 03:03:22
(UTC-04:00)

DIWATA 2B (PO-101) - Pass Details

Date: 24 May 2022
Orbit: 585 x 597 km, 98.0° (Epoch: 27 June)

Event Time Altitude Azimuth Distance (km) Brightness Sun altitude
Exits shadow 01:58:43 13° 106° (ESE) 1,716 ? -23.2°
Maximum altitude 02:01:09 21° 65° (ENE) 1,350 ? -23.1°
Drops below altitude 10° 02:04:15 10° 16° (NNE) 1,924 ? -23.0°
Sets 02:06:50 0° 1° (N) 2,832 ? -22.9°
